GW2010 Weather Reports


Display with metric or nautical units.
time (UTC)temp
F
wind
direction
speed
MPH
gust
MPH
rain 1hr
in
rain 24hr
in
rain mn
in
humidity
%
barometer
mb
20260502233045 54 284 1.0 6.0 0.00 0.15 0.15 81 1011.6
20260502231539 55 0 0.0 5.0 0.00 0.15 0.15 81 1011.5
20260502230041 55 267 2.0 6.0 0.00 0.15 0.15 80 1011.4
20260502224537 55 255 2.0 5.0 0.00 0.15 0.15 79 1011.3
20260502223036 56 0 0.0 1.0 0.00 0.15 0.15 78 1011.4
20260502221544 56 0 0.0 3.0 0.00 0.15 0.15 77 1011.3
20260502220042 56 0 0.0 0.0 0.00 0.15 0.15 81 1011.2
20260502214539 57 0 1.0 4.0 0.00 0.15 0.15 76 1011.2
20260502213043 56 0 0.0 0.0 0.00 0.15 0.15 76 1011.2
20260502211540 56 0 0.0 3.0 0.00 0.15 0.15 76 1011.1
20260502210038 56 167 1.0 5.0 0.00 0.15 0.15 75 1011.1
20260502204539 56 0 0.0 6.0 0.00 0.15 0.15 75 1011.2
20260502203034 57 225 2.0 6.0 0.00 0.15 0.15 80 1011.2
20260502201549 57 202 3.0 7.0 0.00 0.15 0.15 75 1011.2
20260502200043 57 214 1.0 7.0 0.00 0.15 0.15 76 1011.1
20260502194538 56 157 3.0 9.0 0.00 0.15 0.15 78 1011.4
20260502193041 55 0 0.0 6.0 0.00 0.15 0.15 79 1011.6
20260502191555 55 135 3.0 7.0 0.00 0.15 0.15 80 1011.7
20260502190039 54 0 4.0 9.0 0.00 0.15 0.15 79 1011.8
20260502184553 54 144 4.0 8.0 0.00 0.15 0.15 79 1011.9
20260502183059 54 126 3.0 9.0 0.00 0.15 0.15 80 1011.9
20260502181542 53 103 3.0 10.0 0.00 0.15 0.15 83 1012.1
20260502163052 51 114 5.0 10.0 0.01 0.15 0.15 88 1013.0
20260502161547 51 127 4.0 8.0 0.01 0.15 0.15 88 1013.2
20260502151544 52 123 2.0 12.0 0.02 0.14 0.14 88 1013.1
20260502123037 52 46 1.0 4.0 0.01 0.02 0.02 86 1012.1
20260502121549 52 98 0.0 4.0 0.02 0.02 0.02 86 1011.9
20260502114536 52 0 1.0 6.0 0.01 0.01 0.01 84 1012.0
20260502113033 52 105 1.0 4.0 0.01 0.01 0.01 82 1012.0
20260502111535 53 67 1.0 6.0 0.00 0.00 0.00 80 1012.3
20260502110039 53 94 3.0 8.0 0.00 0.00 0.00 79 1012.3
20260502104537 53 126 4.0 8.0 0.00 0.00 0.00 80 1012.3
20260502103039 54 85 2.0 5.0 0.00 0.00 0.00 80 1012.3
20260502101543 53 78 2.0 6.0 0.00 0.00 0.00 82 1012.2
20260502070041 52 0 0.0 0.0 0.00 0.00 0.00 86 1011.4
20260502064537 52 0 0.0 0.0 0.00 0.00 0.00 86 1011.4
20260502063036 52 0 0.0 0.0 0.00 0.00 0.00 86 1011.6
20260502061543 53 0 0.0 0.0 0.00 0.00 0.00 86 1011.7
20260502060044 53 0 0.0 0.0 0.00 0.00 0.00 85 1011.7
20260502054544 53 0 0.0 0.0 0.00 0.00 0.00 85 1011.7
20260502053040 53 0 0.0 0.0 0.00 0.00 0.00 85 1012.0
20260502051545 54 0 0.0 0.0 0.00 0.00 0.00 83 1012.2
20260502050047 53 0 0.0 0.0 0.00 0.00 0.00 85 1012.3
20260502044544 53 0 0.0 0.0 0.00 0.00 0.00 84 1012.3
20260502043041 53 0 0.0 0.0 0.00 0.00 0.00 83 1012.5
20260502041602 53 0 0.0 0.0 0.00 0.00 0.00 83 1012.4
20260502040046 53 0 0.0 0.0 0.00 0.00 0.00 82 1012.6
20260502034536 53 249 1.0 3.0 0.00 0.00 0.00 83 1012.5
20260502033050 53 0 0.0 4.0 0.00 0.00 0.00 83 1012.6
20260502031543 53 272 1.0 4.0 0.00 0.00 0.00 83 1012.7
20260502030042 53 271 1.0 4.0 0.00 0.00 0.00 83 1012.9
20260502024540 53 0 0.0 0.0 0.00 0.00 0.00 83 1012.9
20260502023035 54 0 0.0 0.0 0.00 0.00 0.00 82 1013.0
20260502021536 54 0 0.0 0.0 0.00 0.00 0.00 82 1013.1
20260502020033 53 0 0.0 0.0 0.00 0.00 0.00 82 1013.1
20260502014535 54 0 0.0 0.0 0.00 0.00 0.00 82 1012.9
20260502013040 54 0 0.0 0.0 0.00 0.00 0.00 82 1012.8
20260502011538 53 0 0.0 0.0 0.00 0.00 0.00 82 1013.0
20260502010038 54 0 0.0 0.0 0.00 0.00 0.00 82 1012.6
20260502004533 54 0 0.0 4.0 0.00 0.00 0.00 83 1012.6
20260502003043 54 0 2.0 5.0 0.00 0.00 0.00 83 1012.1
20260502001543 54 236 3.0 7.0 0.00 0.00 0.00 82 1012.1
20260502000044 54 232 1.0 6.0 0.00 0.00 0.00 85 1012.3
20260501234537 54 260 2.0 6.0 0.00 0.00 0.00 79 1012.3